This is the latest recevied weather packets stored in our database for station/object N4TLC. If no packets are shown the sender has not sent any weather packets the latest 10 day(s).
| Time | Temp. | Humidity | Pressure | Rain* | Wind** | Luminosity | Snow |
|---|---|---|---|---|---|---|---|
| 1776897718 | 23.89° C | 38% | 1018.8 hPa | 0 mm | - | 72 W/m² | - |
| 1776897416 | 23.89° C | 37% | 1018.9 hPa | 0 mm | - | 84 W/m² | - |
| 1776897113 | 23.89° C | 37% | 1018.9 hPa | 0 mm | - | 53 W/m² | - |
| 1776896810 | 23.89° C | 37% | 1018.9 hPa | 0 mm | - | 64 W/m² | - |
| 1776896506 | 24.44° C | 36% | 1018.8 hPa | 0 mm | - | 69 W/m² | - |
| 1776896201 | 24.44° C | 36% | 1018.9 hPa | 0 mm | - | 69 W/m² | - |
| 1776895898 | 25° C | 35% | 1018.9 hPa | 0 mm | - | 114 W/m² | - |
| 1776895596 | 25° C | 35% | 1018.9 hPa | 0 mm | - | 84 W/m² | - |
| 1776895291 | 25° C | 35% | 1018.9 hPa | 0 mm | - | 102 W/m² | - |
| 1776894987 | 25° C | 35% | 1018.7 hPa | 0 mm | - | 109 W/m² | - |
| 1776894686 | 25° C | 35% | 1018.8 hPa | 0 mm | - | 140 W/m² | - |
| 1776894382 | 25° C | 34% | 1018.6 hPa | 0 mm | - | 80 W/m² | - |
| 1776894077 | 25.56° C | 34% | 1018.6 hPa | 0 mm | - | 65 W/m² | - |
| 1776893772 | 25.56° C | 33% | 1018.7 hPa | 0 mm | - | 94 W/m² | - |
| 1776893469 | 26.11° C | 32% | 1018.7 hPa | 0 mm | - | 139 W/m² | - |
| 1776893166 | 26.11° C | 31% | 1018.9 hPa | 0 mm | - | 170 W/m² | - |
| 1776892864 | 26.67° C | 26% | 1018.6 hPa | 0 mm | - | 88 W/m² | - |
| 1776892560 | 26.67° C | 27% | 1018.6 hPa | 0 mm | - | 79 W/m² | - |
| 1776892256 | 27.22° C | 27% | 1018.8 hPa | 0 mm | - | 97 W/m² | - |
| 1776891954 | 27.78° C | 25% | 1018.6 hPa | 0 mm | - | 124 W/m² | - |
| 1776891651 | 28.89° C | 24% | 1018.7 hPa | 0 mm | - | 585 W/m² | - |
| 1776891346 | 27.78° C | 25% | 1018.8 hPa | 0 mm | - | 612 W/m² | - |
| 1776891043 | 27.22° C | 26% | 1018.8 hPa | 0 mm | - | 610 W/m² | - |
| 1776890739 | 27.22° C | 26% | 1018.7 hPa | 0 mm | - | 171 W/m² | - |
| 1776890438 | 27.22° C | 26% | 1018.8 hPa | 0 mm | - | 110 W/m² | - |
* Rain latest hour (hover to see other rain measurements)
** Current wind speed in m/s (hover to see current wind gust speed)